| time (UTC) | temp C | wind direction | speed KPH | gust KPH | rain 1hr cm | rain 24hr cm | rain mn cm | humidity % | barometer mb |
| 20260502211524 | 8 | 30 | 0.0 | 1.6 | 0.00 | 0.05 | 0.05 | 68 | 1047.0 |
| 20260502210019 | 9 | 46 | 0.0 | 3.2 | 0.00 | 0.05 | 0.05 | 69 | 1047.1 |
| 20260502204519 | 9 | 212 | 0.0 | 1.6 | 0.00 | 0.08 | 0.05 | 68 | 1047.2 |
| 20260502203018 | 8 | 198 | 0.0 | 1.6 | 0.00 | 0.08 | 0.05 | 73 | 1047.2 |
| 20260502201532 | 7 | 243 | 0.0 | 3.2 | 0.00 | 0.08 | 0.05 | 75 | 1047.5 |
| 20260502200016 | 7 | 150 | 1.6 | 4.8 | 0.00 | 0.08 | 0.05 | 76 | 1047.4 |
| 20260502194515 | 7 | 226 | 0.0 | 6.4 | 0.00 | 0.10 | 0.05 | 75 | 1047.5 |
| 20260502193015 | 7 | 185 | 0.0 | 4.8 | 0.05 | 0.10 | 0.05 | 75 | 1047.5 |
| 20260502191514 | 7 | 232 | 0.0 | 4.8 | 0.05 | 0.10 | 0.05 | 77 | 1047.4 |
| 20260502190011 | 8 | 212 | 0.0 | 3.2 | 0.05 | 0.10 | 0.05 | 77 | 1047.6 |
| 20260502184513 | 8 | 222 | 0.0 | 0.0 | 0.05 | 0.23 | 0.05 | 77 | 1047.7 |
| 20260502183011 | 9 | 222 | 0.0 | 1.6 | 0.00 | 0.18 | 0.00 | 70 | 1047.9 |
| 20260502181510 | 9 | 220 | 0.0 | 1.6 | 0.00 | 0.18 | 0.00 | 65 | 1048.0 |
| 20260502163057 | 7 | 233 | 0.0 | 3.2 | 0.00 | 0.28 | 0.00 | 76 | 1049.0 |
| 20260502161552 | 7 | 224 | 0.0 | 4.8 | 0.00 | 0.28 | 0.00 | 77 | 1048.8 |
| 20260502151509 | 6 | 244 | 0.0 | 1.6 | 0.00 | 0.38 | 0.00 | 78 | 1048.5 |
| 20260502071530 | 2 | 266 | 0.0 | 0.0 | 0.00 | 0.58 | 0.00 | 90 | 1046.6 |
| 20260502070047 | 2 | 266 | 0.0 | 1.6 | 0.00 | 0.58 | 0.00 | 90 | 1046.6 |
| 20260502064527 | 2 | 281 | 0.0 | 1.6 | 0.00 | 0.58 | 0.00 | 90 | 1046.5 |
| 20260502063031 | 2 | 281 | 0.0 | 1.6 | 0.00 | 0.58 | 0.00 | 90 | 1046.5 |
| 20260502061554 | 2 | 67 | 0.0 | 0.0 | 0.00 | 0.58 | 0.00 | 90 | 1046.3 |
| 20260502060056 | 2 | 66 | 0.0 | 0.0 | 0.00 | 0.58 | 0.00 | 90 | 1046.1 |
| 20260502054601 | 2 | 73 | 0.0 | 0.0 | 0.00 | 0.58 | 0.58 | 90 | 1046.2 |
| 20260502053052 | 2 | 73 | 0.0 | 1.6 | 0.00 | 0.58 | 0.58 | 90 | 1046.2 |
| 20260502051549 | 2 | 323 | 0.0 | 0.0 | 0.00 | 0.58 | 0.58 | 91 | 1046.3 |
| 20260502050049 | 2 | 352 | 0.0 | 0.0 | 0.00 | 0.58 | 0.58 | 91 | 1046.1 |
| 20260502044544 | 2 | 351 | 0.0 | 0.0 | 0.00 | 0.58 | 0.58 | 91 | 1046.1 |
| 20260502043053 | 2 | 267 | 0.0 | 1.6 | 0.00 | 0.58 | 0.58 | 91 | 1045.8 |
| 20260502041608 | 2 | 267 | 0.0 | 0.0 | 0.00 | 0.58 | 0.58 | 91 | 1045.5 |
| 20260502040050 | 2 | 267 | 0.0 | 0.0 | 0.00 | 0.58 | 0.58 | 91 | 1045.3 |
| 20260502034507 | 2 | 266 | 0.0 | 1.6 | 0.00 | 0.58 | 0.58 | 91 | 1045.0 |
| 20260502033006 | 2 | 266 | 0.0 | 1.6 | 0.00 | 0.58 | 0.58 | 91 | 1044.9 |
| 20260502031502 | 2 | 218 | 0.0 | 0.0 | 0.00 | 0.58 | 0.58 | 91 | 1044.7 |
| 20260502030119 | 2 | 218 | 0.0 | 1.6 | 0.00 | 0.58 | 0.58 | 91 | 1044.4 |
| 20260502024605 | 3 | 219 | 0.0 | 1.6 | 0.00 | 0.58 | 0.58 | 91 | 1044.1 |
| 20260502023132 | 2 | 219 | 0.0 | 1.6 | 0.00 | 0.58 | 0.58 | 90 | 1044.0 |
| 20260502021553 | 3 | 219 | 0.0 | 1.6 | 0.00 | 0.58 | 0.58 | 91 | 1043.5 |
| 20260502020050 | 3 | 219 | 0.0 | 1.6 | 0.00 | 0.58 | 0.58 | 91 | 1042.8 |
| 20260502014603 | 3 | 219 | 0.0 | 1.6 | 0.00 | 0.58 | 0.58 | 91 | 1042.6 |
| 20260502013055 | 3 | 219 | 0.0 | 0.0 | 0.00 | 0.58 | 0.58 | 91 | 1042.3 |
| 20260502011602 | 3 | 219 | 0.0 | 1.6 | 0.00 | 0.58 | 0.58 | 91 | 1042.0 |
| 20260502010043 | 3 | 219 | 0.0 | 1.6 | 0.00 | 0.58 | 0.58 | 91 | 1041.9 |
| 20260502004541 | 3 | 219 | 0.0 | 1.6 | 0.00 | 0.58 | 0.58 | 91 | 1041.6 |
| 20260502003040 | 3 | 219 | 0.0 | 3.2 | 0.00 | 0.58 | 0.58 | 91 | 1041.3 |
| 20260502001540 | 3 | 290 | 0.0 | 6.4 | 0.00 | 0.58 | 0.58 | 90 | 1040.9 |
| 20260502000050 | 3 | 221 | 0.0 | 4.8 | 0.00 | 0.58 | 0.58 | 90 | 1040.4 |
| 20260501234532 | 3 | 215 | 0.0 | 4.8 | 0.00 | 0.58 | 0.58 | 89 | 1040.4 |
| 20260501233030 | 3 | 236 | 0.0 | 4.8 | 0.00 | 0.58 | 0.58 | 89 | 1040.0 |
| 20260501231528 | 3 | 349 | 0.0 | 3.2 | 0.00 | 0.58 | 0.58 | 88 | 1040.0 |
| 20260501230056 | 3 | 360 | 0.0 | 1.6 | 0.00 | 0.58 | 0.58 | 88 | 1039.8 |
| 20260501224526 | 4 | 219 | 0.0 | 8.0 | 0.00 | 0.58 | 0.58 | 86 | 1039.4 |
| 20260501223023 | 4 | 181 | 0.0 | 9.7 | 0.00 | 0.58 | 0.58 | 86 | 1039.4 |
| 20260501221649 | 5 | 297 | 0.0 | 3.2 | 0.00 | 0.58 | 0.58 | 84 | 1039.2 |
| 20260501220047 | 5 | 264 | 0.0 | 8.0 | 0.00 | 0.58 | 0.58 | 84 | 1038.9 |
| 20260501214518 | 5 | 226 | 0.0 | 6.4 | 0.00 | 0.58 | 0.58 | 84 | 1038.8 |
| 20260501213020 | 5 | 337 | 0.0 | 6.4 | 0.00 | 0.58 | 0.58 | 84 | 1038.9 |